Time,TemperatureF,DewpointF,PressureIn,WindDirection,WindDirectionDegrees,WindSpeedMPH,WindSpeedGustMPH,Humidity,HourlyPrecipIn,Conditions,Clouds,dailyrainin,SolarRadiationWatts/m^2,SoftwareType,DateUTC
2013-07-06 00:08:00,60.9,56.0,29.86,WSW,238,0.0,-999.0,84,-99.99,,,0.00,0,weatherlink.com 1.10,2013-07-06 07:08:00,
2013-07-06 00:23:00,60.5,56.0,29.86,WSW,239,0.0,-999.0,84,-99.99,,,0.00,0,weatherlink.com 1.10,2013-07-06 07:23:00,
2013-07-06 00:37:00,59.9,55.0,29.87,WSW,238,0.0,-999.0,85,-99.99,,,0.00,0,weatherlink.com 1.10,2013-07-06 07:37:00,
2013-07-06 00:52:00,59.4,56.0,29.87,WSW,239,0.0,-999.0,87,-99.99,,,0.00,0,weatherlink.com 1.10,2013-07-06 07:52:00,
2013-07-06 01:08:00,59.0,55.0,29.87,SSE,148,1.0,-999.0,87,-99.99,,,0.00,0,weatherlink.com 1.10,2013-07-06 08:08:00,
2013-07-06 01:23:00,58.1,55.0,29.87,SSE,148,0.0,-999.0,89,-99.99,,,0.00,0,weatherlink.com 1.10,2013-07-06 08:23:00,
2013-07-06 01:37:00,57.6,55.0,29.87,SSE,148,0.0,-999.0,90,-99.99,,,0.00,0,weatherlink.com 1.10,2013-07-06 08:37:00,
2013-07-06 01:52:00,57.5,55.0,29.87,SSE,148,0.0,-999.0,91,-99.99,,,0.00,0,weatherlink.com 1.10,2013-07-06 08:52:00,
2013-07-06 02:07:00,57.1,55.0,29.87,SSE,148,0.0,-999.0,91,-99.99,,,0.00,0,weatherlink.com 1.10,2013-07-06 09:07:00,
2013-07-06 02:22:00,56.7,54.0,29.86,SSE,148,0.0,-999.0,91,-99.99,,,0.00,0,weatherlink.com 1.10,2013-07-06 09:22:00,
2013-07-06 02:37:00,56.4,54.0,29.87,SSE,148,0.0,-999.0,92,-99.99,,,0.00,0,weatherlink.com 1.10,2013-07-06 09:37:00,
2013-07-06 02:53:00,56.1,54.0,29.87,SSE,148,0.0,-999.0,92,-99.99,,,0.00,0,weatherlink.com 1.10,2013-07-06 09:53:00,
2013-07-06 03:08:00,55.7,54.0,29.87,SSE,148,0.0,-999.0,93,-99.99,,,0.00,0,weatherlink.com 1.10,2013-07-06 10:08:00,
2013-07-06 03:23:00,55.4,54.0,29.87,SSE,148,0.0,-999.0,93,-99.99,,,0.00,0,weatherlink.com 1.10,2013-07-06 10:23:00,
2013-07-06 03:38:00,55.3,54.0,29.87,SSE,148,0.0,-999.0,94,-99.99,,,0.00,0,weatherlink.com 1.10,2013-07-06 10:38:00,
2013-07-06 03:53:00,55.1,54.0,29.87,SSE,148,0.0,-999.0,94,-99.99,,,0.00,0,weatherlink.com 1.10,2013-07-06 10:53:00,
2013-07-06 04:08:00,55.1,54.0,29.87,SSE,148,0.0,-999.0,94,-99.99,,,0.00,0,weatherlink.com 1.10,2013-07-06 11:08:00,
2013-07-06 04:22:00,54.7,53.0,29.87,SSE,148,0.0,-999.0,94,-99.99,,,0.00,0,weatherlink.com 1.10,2013-07-06 11:22:00,
2013-07-06 04:37:00,54.4,53.0,29.87,SSE,148,0.0,-999.0,94,-99.99,,,0.00,0,weatherlink.com 1.10,2013-07-06 11:37:00,
2013-07-06 04:52:00,54.1,53.0,29.87,SSE,148,0.0,-999.0,94,-99.99,,,0.00,0,weatherlink.com 1.10,2013-07-06 11:52:00,
2013-07-06 05:07:00,54.0,53.0,29.87,SSE,148,0.0,-999.0,95,-99.99,,,0.00,0,weatherlink.com 1.10,2013-07-06 12:07:00,
2013-07-06 05:22:00,53.9,53.0,29.87,SSE,148,0.0,-999.0,95,-99.99,,,0.00,0,weatherlink.com 1.10,2013-07-06 12:22:00,
2013-07-06 05:38:00,53.6,52.0,29.87,SSE,148,0.0,-999.0,95,-99.99,,,0.00,9,weatherlink.com 1.10,2013-07-06 12:38:00,
2013-07-06 05:53:00,53.6,52.0,29.87,SSE,150,0.0,-999.0,95,-99.99,,,0.00,14,weatherlink.com 1.10,2013-07-06 12:53:00,
2013-07-06 06:08:00,53.6,52.0,29.87,SSE,150,0.0,-999.0,95,-99.99,,,0.00,33,weatherlink.com 1.10,2013-07-06 13:08:00,
2013-07-06 06:23:00,54.1,53.0,29.87,WNW,290,0.0,-999.0,96,-99.99,,,0.00,25,weatherlink.com 1.10,2013-07-06 13:23:00,
2013-07-06 06:38:00,54.1,53.0,29.87,WNW,290,0.0,-999.0,95,-99.99,,,0.00,28,weatherlink.com 1.10,2013-07-06 13:38:00,
2013-07-06 06:52:00,54.0,53.0,29.87,WNW,290,0.0,-999.0,95,-99.99,,,0.00,35,weatherlink.com 1.10,2013-07-06 13:52:00,
2013-07-06 07:07:00,54.4,53.0,29.87,WNW,290,0.0,-999.0,96,-99.99,,,0.00,104,weatherlink.com 1.10,2013-07-06 14:07:00,
2013-07-06 07:23:00,54.6,54.0,29.88,WNW,290,1.0,-999.0,96,-99.99,,,0.00,105,weatherlink.com 1.10,2013-07-06 14:23:00,
2013-07-06 07:38:00,54.8,54.0,29.88,WNW,290,0.0,-999.0,96,-99.99,,,0.00,74,weatherlink.com 1.10,2013-07-06 14:38:00,
2013-07-06 07:52:00,55.1,54.0,29.88,SW,214,0.0,-999.0,96,-99.99,,,0.00,135,weatherlink.com 1.10,2013-07-06 14:52:00,
2013-07-06 08:07:00,55.1,54.0,29.88,WSW,245,1.0,-999.0,96,-99.99,,,0.00,90,weatherlink.com 1.10,2013-07-06 15:07:00,
2013-07-06 08:23:00,55.8,55.0,29.89,SW,236,0.0,-999.0,96,-99.99,,,0.00,158,weatherlink.com 1.10,2013-07-06 15:23:00,
2013-07-06 08:38:00,56.2,55.0,29.88,WSW,239,1.0,-999.0,96,-99.99,,,0.00,420,weatherlink.com 1.10,2013-07-06 15:38:00,
2013-07-06 08:53:00,57.0,56.0,29.88,WSW,250,2.0,-999.0,95,-99.99,,,0.00,480,weatherlink.com 1.10,2013-07-06 15:53:00,
2013-07-06 09:23:00,58.4,56.0,29.88,South,186,0.0,-999.0,92,-99.99,,,0.00,540,weatherlink.com 1.10,2013-07-06 16:23:00,
2013-07-06 09:38:00,59.6,57.0,29.87,WSW,241,1.0,-999.0,90,-99.99,,,0.00,591,weatherlink.com 1.10,2013-07-06 16:38:00,
2013-07-06 09:52:00,60.9,57.0,29.87,West,260,1.0,-999.0,88,-99.99,,,0.00,628,weatherlink.com 1.10,2013-07-06 16:52:00,
2013-07-06 10:07:00,61.7,58.0,29.87,West,265,2.0,-999.0,86,-99.99,,,0.00,661,weatherlink.com 1.10,2013-07-06 17:07:00,
2013-07-06 10:22:00,62.4,57.0,29.87,WSW,252,2.0,-999.0,83,-99.99,,,0.00,687,weatherlink.com 1.10,2013-07-06 17:22:00,
2013-07-06 10:37:00,62.3,57.0,29.87,WSW,241,4.0,-999.0,84,-99.99,,,0.00,719,weatherlink.com 1.10,2013-07-06 17:37:00,
2013-07-06 10:53:00,62.7,58.0,29.86,SW,234,0.0,-999.0,84,-99.99,,,0.00,752,weatherlink.com 1.10,2013-07-06 17:53:00,
2013-07-06 11:08:00,65.8,59.0,29.86,West,269,2.0,-999.0,79,-99.99,,,0.00,786,weatherlink.com 1.10,2013-07-06 18:08:00,
2013-07-06 11:22:00,66.0,58.0,29.86,NW,315,0.0,-999.0,75,-99.99,,,0.00,807,weatherlink.com 1.10,2013-07-06 18:22:00,
2013-07-06 11:37:00,66.1,59.0,29.85,SW,236,0.0,-999.0,77,-99.99,,,0.00,835,weatherlink.com 1.10,2013-07-06 18:37:00,
2013-07-06 12:08:00,66.4,58.0,29.85,SW,229,0.0,-999.0,75,-99.99,,,0.00,867,weatherlink.com 1.10,2013-07-06 19:08:00,
2013-07-06 12:38:00,67.9,59.0,29.84,South,179,0.0,-999.0,72,-99.99,,,0.00,895,weatherlink.com 1.10,2013-07-06 19:38:00,
2013-07-06 13:07:00,69.7,59.0,29.84,SW,220,0.0,-999.0,69,-99.99,,,0.00,907,weatherlink.com 1.10,2013-07-06 20:07:00,
2013-07-06 13:22:00,70.7,60.0,29.84,WNW,286,4.0,-999.0,69,-99.99,,,0.00,912,weatherlink.com 1.10,2013-07-06 20:22:00,
2013-07-06 13:37:00,72.5,60.0,29.84,WNW,301,0.0,-999.0,64,-99.99,,,0.00,914,weatherlink.com 1.10,2013-07-06 20:37:00,
2013-07-06 13:53:00,72.1,58.0,29.84,NW,315,0.0,-999.0,62,-99.99,,,0.00,911,weatherlink.com 1.10,2013-07-06 20:53:00,
2013-07-06 14:38:00,74.7,59.0,29.82,North,350,0.0,-999.0,58,-99.99,,,0.00,879,weatherlink.com 1.10,2013-07-06 21:38:00,
2013-07-06 14:52:00,75.4,58.0,29.82,WNW,300,1.0,-999.0,55,-99.99,,,0.00,865,weatherlink.com 1.10,2013-07-06 21:52:00,
2013-07-06 15:08:00,74.8,57.0,29.81,NW,315,3.0,-999.0,54,-99.99,,,0.00,844,weatherlink.com 1.10,2013-07-06 22:08:00,
2013-07-06 15:23:00,75.5,56.0,29.81,South,183,0.0,-999.0,51,-99.99,,,0.00,819,weatherlink.com 1.10,2013-07-06 22:23:00,
2013-07-06 15:38:00,76.3,56.0,29.80,South,188,0.0,-999.0,49,-99.99,,,0.00,796,weatherlink.com 1.10,2013-07-06 22:38:00,
2013-07-06 16:08:00,78.0,56.0,29.80,NNW,338,1.0,-999.0,47,-99.99,,,0.00,737,weatherlink.com 1.10,2013-07-06 23:08:00,
2013-07-06 16:37:00,77.3,54.0,29.79,NNW,340,2.0,-999.0,45,-99.99,,,0.00,671,weatherlink.com 1.10,2013-07-06 23:37:00,
2013-07-06 17:23:00,76.6,56.0,29.78,ESE,123,0.0,-999.0,49,-99.99,,,0.00,555,weatherlink.com 1.10,2013-07-07 00:23:00,
2013-07-06 17:37:00,76.6,55.0,29.78,NNE,21,0.0,-999.0,48,-99.99,,,0.00,519,weatherlink.com 1.10,2013-07-07 00:37:00,
2013-07-06 18:23:00,76.2,55.0,29.77,WNW,298,0.0,-999.0,48,-99.99,,,0.00,392,weatherlink.com 1.10,2013-07-07 01:23:00,
2013-07-06 18:38:00,76.3,59.0,29.77,SSE,163,0.0,-999.0,56,-99.99,,,0.00,350,weatherlink.com 1.10,2013-07-07 01:38:00,
2013-07-06 18:53:00,76.7,56.0,29.77,WNW,297,0.0,-999.0,49,-99.99,,,0.00,304,weatherlink.com 1.10,2013-07-07 01:53:00,
2013-07-06 19:22:00,76.5,57.0,29.76,North,355,0.0,-999.0,52,-99.99,,,0.00,220,weatherlink.com 1.10,2013-07-07 02:22:00,
2013-07-06 19:37:00,75.1,58.0,29.77,North,360,0.0,-999.0,55,-99.99,,,0.00,172,weatherlink.com 1.10,2013-07-07 02:37:00,
2013-07-06 19:53:00,74.0,58.0,29.76,North,360,0.0,-999.0,58,-99.99,,,0.00,127,weatherlink.com 1.10,2013-07-07 02:53:00,
2013-07-06 20:08:00,72.8,57.0,29.77,North,360,0.0,-999.0,59,-99.99,,,0.00,83,weatherlink.com 1.10,2013-07-07 03:08:00,
2013-07-06 20:23:00,71.8,56.0,29.77,North,360,0.0,-999.0,58,-99.99,,,0.00,44,weatherlink.com 1.10,2013-07-07 03:23:00,
2013-07-06 20:38:00,70.0,56.0,29.77,North,360,0.0,-999.0,62,-99.99,,,0.00,18,weatherlink.com 1.10,2013-07-07 03:38:00,
2013-07-06 20:53:00,67.9,56.0,29.77,North,360,0.0,-999.0,66,-99.99,,,0.00,11,weatherlink.com 1.10,2013-07-07 03:53:00,
2013-07-06 21:08:00,66.1,56.0,29.77,NNE,13,0.0,-999.0,69,-99.99,,,0.00,0,weatherlink.com 1.10,2013-07-07 04:08:00,
2013-07-06 21:22:00,64.8,56.0,29.78,NNE,13,0.0,-999.0,72,-99.99,,,0.00,0,weatherlink.com 1.10,2013-07-07 04:22:00,
2013-07-06 21:37:00,64.1,56.0,29.78,NNE,13,0.0,-999.0,74,-99.99,,,0.00,0,weatherlink.com 1.10,2013-07-07 04:37:00,
2013-07-06 21:52:00,63.2,56.0,29.79,NNE,13,0.0,-999.0,76,-99.99,,,0.00,0,weatherlink.com 1.10,2013-07-07 04:52:00,
2013-07-06 22:08:00,63.0,55.0,29.79,NNE,13,0.0,-999.0,76,-99.99,,,0.00,0,weatherlink.com 1.10,2013-07-07 05:08:00,
2013-07-06 22:23:00,63.5,55.0,29.79,NNE,13,0.0,-999.0,75,-99.99,,,0.00,0,weatherlink.com 1.10,2013-07-07 05:23:00,
2013-07-06 22:37:00,63.6,55.0,29.79,NNE,13,0.0,-999.0,74,-99.99,,,0.00,0,weatherlink.com 1.10,2013-07-07 05:37:00,
2013-07-06 22:53:00,63.3,55.0,29.79,NNE,13,0.0,-999.0,73,-99.99,,,0.00,0,weatherlink.com 1.10,2013-07-07 05:53:00,
2013-07-06 23:08:00,62.9,55.0,29.79,NNE,13,0.0,-999.0,74,-99.99,,,0.00,0,weatherlink.com 1.10,2013-07-07 06:08:00,
2013-07-06 23:23:00,62.2,54.0,29.80,NNE,13,0.0,-999.0,75,-99.99,,,0.00,0,weatherlink.com 1.10,2013-07-07 06:23:00,
2013-07-06 23:38:00,61.3,54.0,29.80,NNE,13,0.0,-999.0,77,-99.99,,,0.00,0,weatherlink.com 1.10,2013-07-07 06:38:00,
2013-07-06 23:53:00,60.9,54.0,29.80,NNE,13,0.0,-999.0,78,-99.99,,,0.00,0,weatherlink.com 1.10,2013-07-07 06:53:00,